Home > Weather > Reinach > Past weeks

Flag for Switzerland Past Weather in Reinach, Basel-Land, Switzerland — Yesterday and Last 2 Weeks

Now
71 °F

Passing clouds.


Feels Like: 73 °F
Forecast: 60 / 75 °F
Wind: 6 mph from West

Location: Bale-Mulhouse

Current Time: Aug 29, 2016 at 12:41:09 AM

Latest Report: Aug 29, 2016 at 12:00 AM


Visibility: 31 mi

Pressure: 30.06 "Hg

Humidity: 74%

Dew Point: 63 °F

Location of ReinachLocation

Past Weather in Reinach — Graph

°F

Reinach Temperature Yesterday

Maximum temperature yesterday: 90 °F (at 3:00 PM)
Minimum temperature yesterday: 66 °F (at 6:00 AM)
Average temperature yesterday: 77 °F

High & Low Weather Summary for the Past Weeks

 TemperatureHumidityPressure
High95 °F (Aug 27, 5:00 PM)98% (Aug 18, 2:00 AM)30.38 "Hg (Aug 18, 2:00 AM)
Low52 °F (Aug 23, 6:00 AM)20% (Aug 27, 6:00 PM)29.79 "Hg (Aug 17, 6:00 PM)
Average70 °F73%30.05 "Hg
* Reported Aug 13 11:00 PM — Aug 28 11:00 PM, Reinach, Weather by CustomWeather, © 2016

Note: Actual official high and low records may vary slightly from our data, if they occured in-between our weather recording intervals... More about our weather records

Advertising

Reinach Weather History for the Previous 24 Hours

Scroll right to see more
 ConditionsComfort  
Time TempWeatherWind HumidityBarometerVisibility
11:00 PM
Sun, Aug 28
69 °FPassing clouds.5 mph82%30.05 "Hg31 mi
10:00 PM72 °FPassing clouds.5 mph76%30.03 "Hg31 mi
9:00 PM76 °FPassing clouds.5 mph67%30.01 "Hg31 mi
8:00 PM81 °FOvercast.3 mph55%29.99 "Hg37 mi
7:00 PM84 °FOvercast.6 mph48%29.98 "Hg37 mi
6:00 PM86 °FOvercast.10 mph41%29.98 "Hg37 mi
5:00 PM89 °FOvercast.9 mph34%29.96 "Hg37 mi
4:00 PM90 °FPartly sunny.9 mph36%29.96 "Hg37 mi
3:00 PM90 °FPassing clouds.10 mph32%29.96 "Hg37 mi
2:00 PM90 °FPassing clouds.9 mph32%29.98 "Hg37 mi
1:00 PM88 °FPassing clouds.9 mph36%30.00 "Hg37 mi
12:00 PM85 °FPassing clouds.7 mph40%30.02 "Hg37 mi
11:00 AM81 °FPassing clouds.5 mph56%30.03 "Hg37 mi
10:00 AM77 °FPassing clouds.5 mph66%30.04 "Hg37 mi
9:00 AM72 °FPassing clouds.8 mph74%30.05 "Hg37 mi
8:00 AM68 °FPassing clouds.5 mph81%30.05 "Hg37 mi
7:00 AM66 °FScattered clouds.7 mph82%30.03 "Hg25 mi
6:00 AM66 °FPassing clouds.6 mph83%30.03 "Hg25 mi
5:00 AM69 °FPassing clouds.7 mph70%30.03 "Hg25 mi
4:00 AM70 °FMild.6 mph75%30.04 "Hg37 mi
3:00 AM71 °FMild.7 mph77%30.03 "Hg22 mi
2:00 AM71 °FOvercast.8 mph83%30.03 "Hg22 mi
1:00 AM68 °FMild.2 mph84%30.03 "Hg28 mi
12:00 AM71 °FPassing clouds.1 mph74%30.01 "Hg25 mi
Weather by CustomWeather, © 2016

See weather overviewHow to use our weather pages